Location: Wiesbaden
(50.0830°N, 8.2500°E)
Time: 19:41:56
(UTC+02:00)

ISS - Pass Details

Date: 19 July 2019
Orbit: 409 x 418 km, 51.6° (Epoch: 20 July)

Event Time Altitude Azimuth Distance (km) Brightness Sun altitude
Rises 02:15:19 0° 284° (WNW) 2,351 0.1 -18.4°
Reaches altitude 10° 02:17:25 10° 285° (WNW) 1,486 -0.9 -18.3°
Maximum altitude 02:20:45 82° 13° (NNE) 421 -3.8 -18.2°
Drops below altitude 10° 02:24:05 10° 102° (ESE) 1,478 -1.0 -18.1°
Sets 02:26:10 0° 103° (ESE) 2,337 0.0 -18.0°
